FW1519 Weather Reports


time (UTC)temp
C
wind
direction
speed
KPH
gust
KPH
rain 1hr
cm
rain 24hr
cm
rain mn
cm
humidity
%
barometer
mb
20260504045830 14 192 8.0 17.7 0.00 0.00 0.00 45 999.4
20260504045329 14 191 9.7 17.7 0.00 0.00 0.00 44 999.5
20260504044831 14 217 9.7 17.7 0.00 0.00 0.00 44 999.5
20260504043830 14 197 9.7 16.1 0.00 0.00 0.00 44 999.7
20260504043329 14 193 8.0 17.7 0.00 0.00 0.00 44 999.8
20260504042830 14 180 8.0 17.7 0.00 0.00 0.00 44 999.9
20260504042330 14 183 9.7 16.1 0.00 0.00 0.00 44 1000.1
20260504041831 14 168 9.7 17.7 0.00 0.00 0.00 44 1000.2
20260504041329 14 217 8.0 17.7 0.00 0.00 0.00 44 1000.4
20260504040831 14 196 8.0 16.1 0.00 0.00 0.00 44 1000.5
20260504035331 14 188 9.7 17.7 0.00 0.00 0.00 43 1001.1
20260504034824 14 181 8.0 17.7 0.00 0.00 0.00 43 1001.1
20260504033819 14 196 8.0 14.5 0.00 0.00 0.00 43 1001.4
20260504033315 14 193 8.0 14.5 0.00 0.00 0.00 43 1001.5
20260504032315 14 199 6.4 14.5 0.00 0.00 0.00 43 1001.7
20260504031315 14 172 4.8 9.7 0.00 0.00 0.00 43 1001.9
20260504030815 14 184 4.8 9.7 0.00 0.00 0.00 43 1002.0
20260504025813 14 187 4.8 8.0 0.00 0.00 0.00 44 1002.2
20260504025315 15 192 3.2 8.0 0.00 0.00 0.00 44 1002.3
20260504024813 15 190 3.2 8.0 0.00 0.00 0.00 42 1002.4
20260504024314 15 199 3.2 6.4 0.00 0.00 0.00 43 1002.5
20260504023312 15 186 1.6 4.8 0.00 0.00 0.00 42 1002.6
20260504022811 15 185 1.6 4.8 0.00 0.00 0.00 41 1002.6
20260504022307 16 185 3.2 6.4 0.00 0.00 0.00 40 1002.8
20260504021805 16 184 3.2 6.4 0.00 0.00 0.00 38 1002.8
20260504020803 16 186 1.6 4.8 0.00 0.00 0.00 40 1002.9
20260504015802 17 186 1.6 3.2 0.00 0.00 0.00 38 1002.9
20260504014301 17 187 1.6 3.2 0.00 0.00 0.00 36 1003.0
20260504013802 18 187 1.6 3.2 0.00 0.00 0.00 34 1003.2
20260504012803 17 249 3.2 8.0 0.00 0.00 0.00 33 1003.3
20260504012304 17 252 3.2 9.7 0.00 0.00 0.00 32 1003.3
20260504011801 18 242 4.8 11.3 0.00 0.00 0.00 32 1003.3
20260504011301 18 262 4.8 11.3 0.00 0.00 0.00 32 1003.2
20260504010802 18 238 6.4 11.3 0.00 0.00 0.00 31 1003.3
20260504010302 18 266 6.4 12.9 0.00 0.00 0.00 31 1003.3
20260504005802 18 267 8.0 16.1 0.00 0.00 0.00 31 1003.5
20260504005301 18 265 8.0 16.1 0.00 0.00 0.00 30 1003.3
20260504004802 19 248 9.7 19.3 0.00 0.00 0.00 31 1003.5
20260504003254 19 248 12.9 22.5 0.00 0.00 0.00 30 1003.5
20260504002748 19 213 11.3 20.9 0.00 0.00 0.00 29 1003.6
20260504001740 20 256 11.3 20.9 0.00 0.00 0.00 29 1003.7
20260504001240 20 259 9.7 22.5 0.00 0.00 0.00 29 1003.8
20260504000739 20 241 9.7 22.5 0.00 0.00 0.00 28 1003.7
20260504000241 20 235 9.7 22.5 0.00 0.00 0.00 28 1003.8
20260503235739 20 263 11.3 24.1 0.00 0.00 0.00 27 1003.7
20260503235240 20 260 11.3 24.1 0.00 0.00 0.00 27 1003.9
20260503233739 20 213 12.9 27.4 0.00 0.00 0.00 28 1004.0
20260503233236 20 255 12.9 24.1 0.00 0.00 0.00 28 1004.0
20260503232736 19 277 12.9 24.1 0.00 0.00 0.00 28 1004.1
20260503232236 19 274 14.5 24.1 0.00 0.00 0.00 28 1004.2
20260503231735 19 246 14.5 24.1 0.00 0.00 0.00 28 1004.2
20260503231237 20 257 14.5 27.4 0.00 0.00 0.00 28 1004.2
20260503230736 20 293 16.1 27.4 0.00 0.00 0.00 27 1004.2
20260503230235 20 288 14.5 27.4 0.00 0.00 0.00 28 1004.2
20260503225737 20 241 12.9 25.7 0.00 0.00 0.00 28 1004.2
20260503225230 20 261 14.5 30.6 0.00 0.00 0.00 26 1004.1
20260503224731 20 281 17.7 35.4 0.00 0.00 0.00 26 1004.2
20260503224231 20 261 14.5 35.4 0.00 0.00 0.00 27 1004.1
20260503223732 20 270 12.9 27.4 0.00 0.00 0.00 26 1004.2
20260503223232 20 298 16.1 30.6 0.00 0.00 0.00 25 1004.2
20260503222233 20 278 14.5 25.7 0.00 0.00 0.00 26 1004.3
20260503220231 20 215 16.1 32.2 0.00 0.00 0.00 27 1004.5
20260503215731 21 265 14.5 32.2 0.00 0.00 0.00 25 1004.5
20260503215229 21 200 11.3 25.7 0.00 0.00 0.00 25 1004.4
20260503214729 20 244 9.7 20.9 0.00 0.00 0.00 25 1004.6
20260503214230 20 273 9.7 19.3 0.00 0.00 0.00 26 1004.5
20260503213729 20 261 12.9 25.7 0.00 0.00 0.00 25 1004.6
20260503213229 20 259 16.1 29.0 0.00 0.00 0.00 26 1004.7
20260503212730 20 312 14.5 29.0 0.00 0.00 0.00 26 1004.7
20260503212229 20 300 12.9 24.1 0.00 0.00 0.00 26 1004.8
20260503211729 20 261 12.9 30.6 0.00 0.00 0.00 27 1004.8
20260503211230 20 246 12.9 30.6 0.00 0.00 0.00 26 1004.9
20260503210730 20 284 16.1 29.0 0.00 0.00 0.00 26 1005.0
20260503210229 20 280 17.7 29.0 0.00 0.00 0.00 27 1005.0
20260503205730 20 298 16.1 29.0 0.00 0.00 0.00 26 1005.1
20260503205228 20 311 16.1 29.0 0.00 0.00 0.00 26 1005.2
20260503204731 20 254 16.1 29.0 0.00 0.00 0.00 25 1005.2
20260503204229 20 305 14.5 29.0 0.00 0.00 0.00 25 1005.3
20260503203731 20 274 11.3 29.0 0.00 0.00 0.00 25 1005.4
20260503203229 20 333 11.3 20.9 0.00 0.00 0.00 27 1005.4
20260503202230 19 225 11.3 22.5 0.00 0.00 0.00 28 1005.6
20260503201728 19 282 11.3 25.7 0.00 0.00 0.00 27 1005.6
20260503201229 19 269 14.5 25.7 0.00 0.00 0.00 27 1005.8
20260503200728 19 276 11.3 27.4 0.00 0.00 0.00 28 1005.9
20260503200229 19 294 8.0 27.4 0.00 0.00 0.00 28 1005.9
20260503195729 19 348 11.3 24.1 0.00 0.00 0.00 26 1006.0
20260503195228 18 340 12.9 32.2 0.00 0.00 0.00 28 1006.0
20260503194730 18 320 16.1 32.2 0.00 0.00 0.00 27 1006.1
20260503194229 18 321 16.1 29.0 0.00 0.00 0.00 27 1006.1
20260503193730 18 295 11.3 27.4 0.00 0.00 0.00 27 1006.1
20260503193229 18 316 12.9 25.7 0.00 0.00 0.00 29 1006.1
20260503192728 18 269 14.5 25.7 0.00 0.00 0.00 29 1006.3
20260503192230 18 340 12.9 24.1 0.00 0.00 0.00 28 1006.2
20260503191730 18 347 12.9 27.4 0.00 0.00 0.00 29 1006.2
20260503191229 18 288 14.5 27.4 0.00 0.00 0.00 29 1006.3
20260503190728 18 297 14.5 33.8 0.00 0.00 0.00 29 1006.4
20260503190229 18 278 16.1 33.8 0.00 0.00 0.00 28 1006.6
20260503185729 18 288 17.7 32.2 0.00 0.00 0.00 28 1006.6
20260503183729 18 279 17.7 29.0 0.00 0.00 0.00 27 1006.9
20260503183230 17 317 17.7 35.4 0.00 0.00 0.00 27 1006.9
20260503182730 17 323 17.7 35.4 0.00 0.00 0.00 26 1007.1
20260503182229 17 256 19.3 29.0 0.00 0.00 0.00 25 1007.0
20260503181730 17 301 17.7 37.0 0.00 0.00 0.00 25 1007.0
20260503181230 17 336 17.7 37.0 0.00 0.00 0.00 25 1007.1
20260503180729 17 320 16.1 32.2 0.00 0.00 0.00 24 1007.1
20260503180233 17 344 17.7 38.6 0.00 0.00 0.00 24 1007.1
20260503175731 17 329 19.3 38.6 0.00 0.00 0.00 24 1007.2
20260503175230 17 318 19.3 35.4 0.00 0.00 0.00 24 1007.2
20260503174728 17 308 16.1 30.6 0.00 0.00 0.00 23 1007.2
20260503174223 17 265 16.1 29.0 0.00 0.00 0.00 23 1007.2
20260503173712 17 321 17.7 37.0 0.00 0.00 0.00 22 1007.3
20260503173216 17 292 17.7 37.0 0.00 0.00 0.00 22 1007.4
20260503172214 17 348 17.7 32.2 0.00 0.00 0.00 24 1007.4
20260503171712 17 319 16.1 32.2 0.00 0.00 0.00 25 1007.4
20260503171211 17 313 19.3 30.6 0.00 0.00 0.00 31 1007.5
20260503170712 16 324 19.3 33.8 0.00 0.00 0.00 31 1007.3
20260503170210 16 296 17.7 33.8 0.00 0.00 0.00 31 1007.4
20260503160201 16 307 19.3 32.2 0.00 0.00 0.00 37 1007.3
20260503150701 16 294 17.7 37.0 0.00 0.00 0.00 46 1007.0
20260503150202 16 338 17.7 30.6 0.00 0.00 0.00 46 1007.0
20260503140108 14 350 19.3 30.6 0.00 0.00 0.00 57 1006.9
20260503131104 12 342 14.5 30.6 0.00 0.00 0.00 61 1006.6
20260503130106 12 347 14.5 24.1 0.00 0.00 0.00 62 1006.6
20260503110529 4 53 0.0 3.2 0.00 0.00 0.00 87 1004.9
20260503081444 9 70 0.0 1.6 0.00 0.00 0.00 67 1004.8
20260503080946 9 70 1.6 4.8 0.00 0.00 0.00 66 1004.9
20260503080443 9 70 1.6 4.8 0.00 0.00 0.00 66 1005.0
20260503072942 10 79 1.6 3.2 0.00 0.00 0.00 62 1005.0
20260503072440 10 55 0.0 3.2 0.00 0.00 0.00 61 1005.1
20260503071441 11 56 3.2 8.0 0.00 0.00 0.00 60 1005.3
20260503070940 11 41 4.8 8.0 0.00 0.00 0.00 60 1005.4
20260503070440 11 26 3.2 6.4 0.00 0.00 0.00 60 1005.4